WA8SIE Weather Reports


time (UTC)temp
F
wind
direction
speed
knots
gust
knots
rain 1hr
in
rain 24hr
in
rain mn
in
humidity
%
barometer
mb
20260902211011 92 180 0.0 2.6 0.00 0.00 0.00 53 1011.8
20260902210511 92 179 0.0 2.6 0.00 0.00 0.00 49 1011.8
20260902210011 92 233 0.0 1.7 0.00 0.00 0.00 49 1011.8
20260902205511 92 301 0.9 1.7 0.00 0.00 0.00 53 1011.9
20260902205011 92 184 0.0 0.0 0.00 0.00 0.00 49 1011.9
20260902204012 92 184 0.0 0.0 0.00 0.00 0.00 55 1011.9
20260902203011 93 304 0.0 0.0 0.00 0.00 0.00 55 1011.9
20260902202511 93 303 0.0 0.0 0.00 0.00 0.00 51 1011.9
20260902201011 93 195 0.0 4.3 0.00 0.00 0.00 48 1012.0
20260902200511 93 205 0.0 4.3 0.00 0.00 0.00 49 1012.0
20260902200011 93 129 0.0 4.3 0.00 0.00 0.00 48 1012.0
20260902195511 93 191 0.0 4.3 0.00 0.00 0.00 51 1012.3
20260902195013 93 188 0.0 5.2 0.00 0.00 0.00 48 1012.3
20260902194511 94 200 0.0 5.2 0.00 0.00 0.00 48 1012.3
20260902194013 94 332 0.0 1.7 0.00 0.00 0.00 49 1012.3
20260902193511 94 201 0.0 0.0 0.00 0.00 0.00 48 1012.3
20260902193012 94 201 0.0 0.0 0.00 0.00 0.00 49 1012.3
20260902192511 93 200 0.0 0.0 0.00 0.00 0.00 50 1012.4
20260902192011 93 201 0.0 3.5 0.00 0.00 0.00 50 1012.4
20260902191513 93 201 0.0 3.5 0.00 0.00 0.00 49 1012.4
20260902191012 94 190 0.0 0.9 0.00 0.00 0.00 50 1012.4
20260902190511 93 138 0.0 7.8 0.00 0.00 0.00 49 1012.4
20260902185511 93 201 0.0 5.2 0.00 0.00 0.00 50 1012.6
20260902185011 94 217 1.7 0.0 0.00 0.00 0.00 50 1012.6
20260902184511 94 293 0.0 0.0 0.00 0.00 0.00 52 1012.6
20260902184011 93 0.0 0.0 0.00 0.00 0.00 52 1012.8
20260902183511 93 186 0.0 6.1 0.00 0.00 0.00 51 1012.8
20260902183013 93 186 0.0 6.1 0.00 0.00 0.00 49 1012.8
20260902182514 94 227 0.0 3.5 0.00 0.00 0.00 51 1012.8
20260902182010 93 272 0.0 3.5 0.00 0.00 0.00 53 1012.8
20260902181011 93 202 0.0 3.5 0.00 0.00 0.00 52 1013.0
20260902180511 93 214 0.0 4.3 0.00 0.00 0.00 52 1013.0
20260902180011 92 197 0.0 4.3 0.00 0.00 0.00 52 1013.0
20260902174510 91 198 0.0 0.9 0.00 0.00 0.00 54 1013.2
20260902174012 91 198 0.0 0.9 0.00 0.00 0.00 55 1013.4
20260902173511 91 197 0.0 0.0 0.00 0.00 0.00 58 1013.4
20260902172512 92 197 0.0 3.5 0.00 0.00 0.00 55 1013.6
20260902172011 92 330 0.0 3.5 0.00 0.00 0.00 56 1013.6
20260902171511 92 322 0.0 2.6 0.00 0.00 0.00 56 1013.6
20260902171010 91 274 0.0 0.0 0.00 0.00 0.00 58 1013.8
20260902170011 91 204 0.0 4.3 0.00 0.00 0.00 57 1013.8
20260902165510 91 188 0.0 2.6 0.00 0.00 0.00 58 1014.1
20260902165011 91 207 0.0 7.8 0.00 0.00 0.00 58 1014.1
20260902164012 91 177 4.3 6.1 0.00 0.00 0.00 59 1014.4
20260902163512 91 214 0.0 0.0 0.00 0.00 0.00 58 1014.4
20260902163010 91 214 0.0 2.6 0.00 0.00 0.00 60 1014.4
20260902162511 91 214 0.0 2.6 0.00 0.00 0.00 58 1014.5
20260902162010 90 195 0.0 0.0 0.00 0.00 0.00 60 1014.5
20260902161511 90 195 0.0 0.0 0.00 0.00 0.00 61 1014.5
20260902161012 90 215 0.0 0.0 0.00 0.00 0.00 63 1014.6
20260902160510 90 215 0.0 0.0 0.00 0.00 0.00 61 1014.6
20260902160011 90 215 0.0 1.7 0.00 0.00 0.00 65 1014.6
20260902155511 90 304 0.0 5.2 0.00 0.00 0.00 63 1014.6
20260902155012 90 268 0.0 5.2 0.00 0.00 0.00 61 1014.6
20260902154511 90 271 0.0 0.0 0.00 0.00 0.00 63 1014.6
20260902154011 89 255 0.0 0.0 0.00 0.00 0.00 63 1014.7
20260902153510 89 225 0.0 0.0 0.00 0.00 0.00 64 1014.7
20260902153011 88 223 0.0 0.0 0.00 0.00 0.00 65 1014.7
20260902152510 88 214 0.0 0.0 0.00 0.00 0.00 66 1014.7
20260902152011 88 148 0.0 0.0 0.00 0.00 0.00 66 1014.7
20260902151511 87 163 0.0 0.0 0.00 0.00 0.00 66 1014.7
20260902151011 86 179 0.0 0.0 0.00 0.00 0.00 67 1014.5
20260902150510 86 141 0.0 0.0 0.00 0.00 0.00 68 1014.5
20260902150010 86 181 0.0 0.0 0.00 0.00 0.00 70 1014.5
20260902145512 85 223 0.0 0.0 0.00 0.00 0.00 70 1014.5
20260902144510 85 276 0.0 0.0 0.00 0.00 0.00 72 1014.5
20260902143510 84 205 0.0 0.0 0.00 0.00 0.00 71 1014.6
20260902143010 84 204 0.0 0.0 0.00 0.00 0.00 74 1014.6
20260902141512 83 203 0.0 0.0 0.00 0.00 0.00 77 1014.6
20260902141011 82 203 0.0 0.0 0.00 0.00 0.00 79 1014.4
20260902140511 81 203 0.0 0.0 0.00 0.00 0.00 79 1014.4
20260902140010 81 204 0.0 0.0 0.00 0.00 0.00 82 1014.4
20260902135510 80 110 0.0 0.0 0.00 0.00 0.00 83 1014.4
20260902135010 80 110 0.0 0.0 0.00 0.00 0.00 84 1014.4
20260902134511 80 110 0.0 0.0 0.00 0.00 0.00 83 1014.4
20260902134011 79 111 0.0 0.0 0.00 0.00 0.00 84 1014.5
20260902133511 79 111 0.0 0.0 0.00 0.00 0.00 87 1014.5
20260902133011 78 183 0.0 0.0 0.00 0.00 0.00 88 1014.5
20260902131511 77 181 0.0 0.0 0.00 0.00 0.00 90 1014.5
20260902131011 77 182 0.0 0.0 0.00 0.00 0.00 91 1014.4
20260902130511 77 181 0.0 0.0 0.00 0.00 0.00 93 1014.4
20260902130011 76 181 0.0 0.0 0.00 0.00 0.00 95 1014.4
20260902125511 76 181 0.0 0.0 0.00 0.00 0.00 98 1014.5
20260902125011 75 181 0.0 0.0 0.00 0.00 0.00 99 1014.5
20260902124511 75 181 0.0 0.0 0.00 0.00 0.00 100 1014.5
20260902124011 75 181 0.0 0.0 0.00 0.00 0.00 100 1014.4
20260902123511 74 181 0.0 0.0 0.00 0.00 0.00 100 1014.4
20260902123011 74 182 0.0 0.0 0.00 0.00 0.00 100 1014.4
20260902122511 73 181 0.0 0.0 0.00 0.00 0.00 100 1014.4
20260902122011 73 181 0.0 0.0 0.00 0.00 0.00 100 1014.4
20260902121513 72 181 0.0 0.0 0.00 0.00 0.00 100 1014.4
20260902121011 72 181 0.0 0.0 0.00 0.00 0.00 100 1014.6
20260902120511 72 181 0.0 0.0 0.00 0.00 0.00 100 1014.6
20260902115511 71 181 0.0 0.0 0.00 0.00 0.00 100 1014.4
20260902115011 71 181 0.0 0.0 0.00 0.00 0.00 100 1014.4
20260902114511 71 181 0.0 0.0 0.00 0.00 0.00 100 1014.4
20260902114011 70 181 0.0 0.0 0.00 0.00 0.00 100 1014.3
20260902113511 70 181 0.0 2.6 0.00 0.00 0.00 100 1014.3
20260902113011 70 182 0.0 2.6 0.00 0.00 0.00 100 1014.3
20260902112511 70 182 0.0 0.0 0.00 0.00 0.00 100 1014.1
20260902111511 70 181 0.0 1.7 0.00 0.00 0.00 100 1014.1
20260902111011 70 181 0.0 0.0 0.00 0.00 0.00 100 1014.1
20260902110511 70 181 0.0 0.0 0.00 0.00 0.00 100 1014.1
20260902110012 70 182 0.0 0.0 0.00 0.00 0.00 100 1014.1
20260902105512 70 181 0.0 0.0 0.00 0.00 0.00 100 1014.1
20260902105012 70 181 0.0 0.0 0.00 0.00 0.00 100 1014.1
20260902104511 70 181 0.0 0.0 0.00 0.00 0.00 100 1014.1
20260902103511 70 181 0.0 0.0 0.00 0.00 0.00 100 1014.0
20260902103011 70 181 0.0 0.0 0.00 0.00 0.00 100 1014.0
20260902102511 71 181 0.0 0.0 0.00 0.00 0.00 100 1013.8
20260902102011 71 181 0.0 0.0 0.00 0.00 0.00 100 1013.8
20260902101511 71 181 0.0 0.0 0.00 0.00 0.00 100 1013.8
20260902101013 71 181 0.0 0.0 0.00 0.00 0.00 100 1013.9
20260902100011 71 182 0.0 1.7 0.00 0.00 0.00 100 1013.9
20260902095511 71 181 0.0 1.7 0.00 0.00 0.00 100 1013.9
20260902095010 71 182 0.0 1.7 0.00 0.00 0.00 100 1013.9
20260902094011 71 181 0.9 1.7 0.00 0.00 0.00 100 1013.7
20260902092011 71 182 0.0 0.0 0.00 0.00 0.00 100 1013.5
20260902091511 71 181 0.0 0.0 0.00 0.00 0.00 100 1013.5
20260902090510 72 181 0.0 0.0 0.00 0.00 0.00 100 1013.5
20260902090011 72 181 0.0 0.0 0.00 0.00 0.00 100 1013.5
20260902085512 72 181 0.0 0.0 0.00 0.00 0.00 100 1013.4
20260902084511 72 181 0.0 0.0 0.00 0.00 0.00 100 1013.4
20260902084011 72 181 0.0 0.9 0.00 0.00 0.00 100 1013.2
20260902083011 72 181 0.0 0.0 0.00 0.00 0.00 100 1013.2
20260902082013 72 181 0.0 0.0 0.00 0.00 0.00 100 1013.1
20260902081510 72 181 0.0 0.0 0.00 0.00 0.00 100 1013.1
20260902081011 72 181 0.0 0.0 0.00 0.00 0.00 100 1013.1
20260902080511 72 181 0.0 0.0 0.00 0.00 0.00 100 1013.1
20260902080010 72 181 0.0 0.9 0.00 0.00 0.00 100 1013.1
20260902075510 72 181 0.0 1.7 0.00 0.00 0.00 100 1013.0
20260902075011 72 181 0.9 1.7 0.00 0.00 0.00 100 1013.0
20260902074511 72 181 0.0 0.0 0.00 0.00 0.00 100 1013.0
20260902073511 72 181 0.0 0.0 0.00 0.00 0.00 100 1013.2
20260902073011 73 181 0.0 0.0 0.00 0.00 0.00 100 1013.2
20260902072510 73 181 0.0 0.0 0.00 0.00 0.00 100 1013.2
20260902072010 73 181 0.0 0.0 0.00 0.00 0.00 100 1013.2
20260902071510 73 181 0.0 0.0 0.00 0.00 0.00 100 1013.2
20260902071010 73 181 0.0 0.0 0.00 0.00 0.00 100 1013.1
20260902070510 73 181 0.0 0.0 0.00 0.00 0.00 100 1013.1
20260902070010 73 181 0.0 0.0 0.00 0.00 0.00 100 1013.1
20260902065512 73 181 0.0 0.0 0.00 0.00 0.00 100 1013.0
20260902065010 73 181 0.0 0.0 0.00 0.00 0.00 100 1013.0
20260902064510 73 181 0.0 0.0 0.00 0.00 0.00 100 1013.0
20260902064011 74 181 0.0 0.0 0.00 0.00 0.00 100 1013.1
20260902063511 74 181 0.0 0.0 0.00 0.00 0.00 100 1013.1
20260902063010 74 181 0.0 0.0 0.00 0.00 0.00 100 1013.1
20260902062511 74 181 0.0 0.0 0.00 0.00 0.00 100 1013.2
20260902062010 74 181 0.0 0.0 0.00 0.00 0.00 100 1013.2
20260902061511 74 181 0.0 0.0 0.00 0.00 0.00 100 1013.2
20260902061010 74 181 0.0 0.0 0.00 0.00 0.00 100 1013.1
20260902060510 74 181 0.0 0.0 0.00 0.00 0.00 100 1013.1
20260902060011 74 181 0.0 0.0 0.00 0.00 0.00 100 1013.1
20260902055510 74 181 0.0 0.0 0.00 0.00 0.00 100 1012.9
20260902055010 74 181 0.0 0.0 0.00 0.00 0.00 100 1012.9
20260902054510 74 181 0.0 0.0 0.00 0.00 0.00 100 1012.9
20260902054010 74 181 0.0 0.0 0.00 0.00 0.00 100 1012.9
20260902053510 74 181 0.0 0.0 0.00 0.00 0.00 100 1012.9
20260902053011 74 181 0.0 0.0 0.00 0.00 0.00 100 1012.9
20260902051511 74 182 0.0 0.0 0.00 0.00 0.00 100 1012.8
20260902051011 74 181 0.0 1.7 0.00 0.00 0.00 100 1012.7
20260902050511 75 181 0.0 1.7 0.00 0.00 0.00 100 1012.7
20260902050012 75 181 0.0 0.0 0.00 0.00 0.00 100 1012.7
20260902045511 75 181 0.0 0.0 0.00 0.00 0.00 100 1012.6
20260902045011 75 181 0.0 0.0 0.00 0.00 0.00 100 1012.6
20260902044513 75 181 0.0 0.0 0.00 0.00 0.00 100 1012.6
20260902044011 75 181 0.0 0.0 0.00 0.00 0.00 100 1012.7
20260902043511 75 181 0.0 0.0 0.00 0.00 0.00 100 1012.7
20260902043013 75 181 0.0 1.7 0.00 0.00 0.00 100 1012.7
20260902042511 75 182 0.0 1.7 0.00 0.00 0.00 99 1012.6
20260902042013 75 181 0.0 0.0 0.00 0.00 0.00 99 1012.6
20260902041513 75 181 0.0 0.9 0.00 0.00 0.00 99 1012.6
20260902040513 76 181 0.0 0.0 0.00 0.00 0.00 99 1012.8
20260902035511 76 182 0.0 0.0 0.00 0.00 0.00 98 1012.6
20260902035011 76 181 0.0 0.0 0.00 0.00 0.00 98 1012.6
20260902034513 76 181 0.0 0.0 0.00 0.00 0.00 98 1012.6
20260902034012 76 181 0.0 0.0 0.00 0.00 0.00 97 1012.5
20260902033511 76 181 0.0 0.0 0.00 0.00 0.00 97 1012.5
20260902033011 76 181 0.0 0.0 0.00 0.00 0.00 97 1012.5
20260902032511 76 181 0.0 0.0 0.00 0.00 0.00 97 1012.5
20260902032011 76 181 0.0 0.0 0.00 0.00 0.00 97 1012.5
20260902031511 76 181 0.0 0.0 0.00 0.00 0.00 97 1012.5
20260902031011 77 182 0.0 0.0 0.00 0.00 0.00 96 1012.6
20260902030011 77 181 0.0 0.0 0.00 0.00 0.00 96 1012.6
20260902025511 77 181 0.0 0.0 0.00 0.00 0.00 95 1012.6
20260902024013 77 181 0.0 0.0 0.00 0.00 0.00 95 1012.7
20260902023011 78 181 0.0 0.9 0.00 0.00 0.00 95 1012.7
20260902022511 78 181 0.0 1.7 0.00 0.00 0.00 94 1012.5
20260902022013 78 181 0.0 1.7 0.00 0.00 0.00 94 1012.5
20260902021511 78 181 0.0 0.9 0.00 0.00 0.00 94 1012.5
20260902021011 78 181 0.0 0.9 0.00 0.00 0.00 93 1012.5
20260902020511 78 181 0.0 0.0 0.00 0.00 0.00 93 1012.5
20260902020011 78 183 0.0 0.0 0.00 0.00 0.00 93 1012.5
20260902015511 78 184 0.0 0.0 0.00 0.00 0.00 93 1012.4
20260902015011 78 184 0.0 0.0 0.00 0.00 0.00 93 1012.4
20260902014510 79 185 0.0 0.0 0.00 0.00 0.00 92 1012.4
20260902014011 79 184 0.0 0.0 0.00 0.00 0.00 92 1012.4
20260902013511 79 184 0.0 0.0 0.00 0.00 0.00 92 1012.4
20260902013011 79 184 0.0 0.0 0.00 0.00 0.00 91 1012.4
20260902012511 79 184 0.0 0.0 0.00 0.00 0.00 91 1012.3
20260902012014 0 0.0 0.0 0.31 0.00 0.00
20260902011512 0 0.0 0.0 0.31 0.00 0.00
20260902011012 0 0.0 0.0 0.31 0.00 0.00
20260902010511 0 0.0 0.0 0.31 0.00 0.00
20260902005010 0 0.0 0.0 0.31 0.00 0.00
20260902004511 0 0.0 0.0 0.31 0.00 0.00
20260902004011 0 0.0 0.0 0.31 0.00 0.00
20260902002510 0 0.0 0.0 0.31 0.00 0.00
20260902002010 0 0.0 0.0 0.31 0.00 0.00
20260902001511 0 0.0 0.0 0.31 0.00 0.00
20260902001011 0 0.0 0.0 0.31 0.00 0.00
20260902000010 0 0.0 0.0 0.31 0.00 0.00
20260901235512 0 0.0 0.0 0.31 0.00 0.00
20260901235010 0 0.0 0.0 0.31 0.00 0.00
20260901234510 0 0.0 0.0 0.31 0.00 0.00
20260901234011 0 0.0 0.0 0.31 0.00 0.00
20260901233510 0 0.0 0.0 0.31 0.00 0.00
20260901231510 0 0.0 0.0 0.31 0.00 0.00
20260901230510 0 0.0 0.0 0.31 0.00 0.00
20260901230010 0 0.0 0.0 0.31 0.00 0.00
20260901225511 87 184 0.0 2.6 0.00 0.00 0.00 68 1011.6
20260901225011 88 185 0.0 0.0 0.00 0.00 0.00 68 1011.6
20260901224011 88 184 0.0 4.3 0.00 0.00 0.00 64 1011.6
20260901223511 89 184 0.0 5.2 0.00 0.00 0.00 62 1011.6
20260901222011 89 203 0.0 5.2 0.00 0.00 0.00 61 1011.8
20260901221511 89 203 0.0 5.2 0.00 0.00 0.00 61 1011.8
20260901221011 90 197 0.0 3.5 0.00 0.00 0.00 60 1011.8
20260901220511 90 204 0.0 3.5 0.00 0.00 0.00 61 1011.8
20260901220011 90 200 0.0 6.1 0.00 0.00 0.00 58 1011.8
20260901215511 90 200 1.7 6.1 0.00 0.00 0.00 58 1011.9
20260901214511 90 172 0.0 8.7 0.00 0.00 0.00 57 1011.9
20260901214013 90 195 0.0 6.1 0.00 0.00 0.00 58 1012.1
20260901213513 90 195 0.0 6.1 0.00 0.00 0.00 56 1012.1
20260901213011 90 198 0.0 2.6 0.00 0.00 0.00 55 1012.1
20260901212511 90 198 0.0 3.5 0.00 0.00 0.00 56 1012.4
20260901212012 90 198 0.0 3.5 0.00 0.00 0.00 54 1012.4
20260901211511 90 200 0.0 4.3 0.00 0.00 0.00 55 1012.4